This is the latest recevied weather packets stored in our database for station/object OK2ILA-3. If no packets are shown the sender has not sent any weather packets the latest 10 day(s).
| Time | Temp. | Humidity | Pressure | Rain* | Wind** | Luminosity | Snow |
|---|---|---|---|---|---|---|---|
| 1778029553 | 11.67° C | 3% | 1638.9 hPa | 0 mm | - | - | - |
| 1778028946 | 11.67° C | 28% | 2457.6 hPa | 0 mm | - | - | - |
| 1778028337 | 11.67° C | 100% | 0.1 hPa | 0 mm | - | - | - |
| 1778027731 | 11.67° C | 100% | 17 hPa | 0 mm | - | - | - |
| 1778027115 | 11.67° C | 3% | 0.1 hPa | 0 mm | - | - | - |
| 1778026510 | 11.67° C | 52% | 4508.9 hPa | 0 mm | - | - | - |
| 1778025904 | 11.67° C | 12% | 10.5 hPa | 0 mm | - | - | - |
| 1778025297 | 11.67° C | 88% | 10.5 hPa | 0 mm | - | - | - |
| 1778024089 | 12.22° C | 52% | 10.5 hPa | 0 mm | - | - | - |
| 1778023480 | 12.22° C | 22% | 19 hPa | 0 mm | - | - | - |
| 1778022877 | 12.22° C | 52% | 19 hPa | 0 mm | - | - | - |
| 1778022271 | 12.22° C | 6% | 19 hPa | 0 mm | - | - | - |
| 1778021663 | 12.22° C | 28% | 0.2 hPa | 0 mm | - | - | - |
| 1778021059 | 12.22° C | 28% | 0.2 hPa | 0 mm | - | - | - |
| 1778020455 | 12.78° C | 52% | 0.2 hPa | 0 mm | - | - | - |
| 1778019846 | 12.78° C | 28% | 4352 hPa | 0 mm | - | - | - |
| 1778019243 | 13.33° C | 100% | 4352 hPa | 0 mm | - | - | - |
| 1778018637 | 13.33° C | 51% | 4352 hPa | 0 mm | - | - | - |
| 1778018068 | 13.33° C | 100% | 56.6 hPa | 0 mm | - | - | - |
| 1778018029 | 13.33° C | 100% | 56.6 hPa | 0 mm | - | - | - |
| 1778017424 | 13.33° C | 42% | 1232.4 hPa | 0 mm | - | - | - |
| 1778016820 | 13.89° C | 47% | 1232.4 hPa | 0 mm | - | - | - |
| 1778016213 | 13.89° C | 12% | 1232.4 hPa | 0 mm | - | - | - |
| 1778015608 | 13.89° C | 98% | 1232.4 hPa | 0 mm | - | - | - |
| 1778015003 | 14.44° C | 2% | 4923.7 hPa | 0 mm | - | - | - |
* Rain latest 24 hours (hover to see other rain measurements)
** Current wind speed in m/s (hover to see current wind gust speed)